GW7375 Weather Reports


time (UTC)temp
F
wind
direction
speed
knots
gust
knots
rain 1hr
in
rain 24hr
in
rain mn
in
humidity
%
barometer
mb
20260503050541 53 0 0.0 1.7 0.00 0.00 0.00 52 1010.9
20260503050048 53 0 0.0 1.7 0.00 0.00 0.00 53 1010.9
20260503045541 53 0 0.0 1.7 0.00 0.00 0.00 54 1010.9
20260503045042 53 0 0.0 1.7 0.00 0.00 0.00 54 1010.9
20260503044555 53 0 0.0 1.7 0.00 0.00 0.00 55 1011.0
20260503044039 52 0 0.0 2.6 0.00 0.00 0.00 56 1011.0
20260503043542 52 0 0.0 2.6 0.00 0.00 0.00 58 1011.1
20260503043049 51 0 0.0 1.7 0.00 0.00 0.00 60 1011.1
20260503042542 51 0 0.0 1.7 0.00 0.00 0.00 64 1011.1
20260503042044 50 0 0.0 0.9 0.00 0.00 0.00 64 1011.2
20260503041549 50 0 0.0 0.0 0.00 0.00 0.00 67 1011.1
20260503041044 50 0 0.0 0.0 0.00 0.00 0.00 67 1011.2
20260503040542 50 0 0.0 0.0 0.00 0.00 0.00 68 1011.3
20260503040048 50 0 0.0 0.0 0.00 0.00 0.00 66 1011.3
20260503035544 50 0 0.0 0.0 0.00 0.00 0.00 66 1011.4
20260503035045 50 0 0.0 1.7 0.00 0.00 0.00 66 1011.3
20260503034550 50 0 0.0 1.7 0.00 0.00 0.00 67 1011.4
20260503034043 50 0 0.9 1.7 0.00 0.00 0.00 67 1011.5
20260503033544 50 0 0.0 0.0 0.00 0.00 0.00 67 1011.6
20260503033049 51 0 0.0 0.0 0.00 0.00 0.00 67 1011.6
20260503032543 51 0 0.0 0.0 0.00 0.00 0.00 65 1011.6
20260503032043 51 0 0.0 0.0 0.00 0.00 0.00 65 1011.8
20260503031557 51 0 0.0 0.0 0.00 0.00 0.00 64 1011.7
20260503031041 51 0 0.0 0.0 0.00 0.00 0.00 64 1011.9
20260503030543 51 0 0.0 0.0 0.00 0.00 0.00 63 1011.9
20260503030050 51 0 0.0 0.0 0.00 0.00 0.00 63 1011.9
20260503025543 52 0 0.0 0.0 0.00 0.00 0.00 63 1012.0
20260503025043 52 0 0.0 0.0 0.00 0.00 0.00 62 1012.0
20260503024548 52 0 0.0 0.0 0.00 0.00 0.00 62 1012.0
20260503024043 53 0 0.0 0.0 0.00 0.00 0.00 61 1012.0
20260503023543 53 0 0.0 0.0 0.00 0.00 0.00 59 1012.0
20260503023050 53 0 0.0 1.7 0.00 0.00 0.00 58 1012.1
20260503022543 54 0 0.0 1.7 0.00 0.00 0.00 58 1012.1
20260503022043 54 216 0.9 1.7 0.00 0.00 0.00 57 1012.1
20260503021550 55 0 0.0 1.7 0.00 0.00 0.00 56 1012.1
20260503021044 55 0 0.9 1.7 0.00 0.00 0.00 54 1012.1
20260503020543 55 0 0.0 1.7 0.00 0.00 0.00 52 1012.1
20260503020056 56 0 0.0 1.7 0.00 0.00 0.00 52 1012.1
20260503015543 56 0 0.0 0.9 0.00 0.00 0.00 50 1012.0
20260503015042 57 0 0.0 0.9 0.00 0.00 0.00 51 1012.0
20260503014555 57 0 0.0 0.9 0.00 0.00 0.00 48 1012.0
20260503014042 58 0 0.0 0.9 0.00 0.00 0.00 48 1012.0
20260503013543 58 0 0.0 0.9 0.00 0.00 0.00 45 1012.0
20260503013053 59 0 0.0 0.9 0.00 0.00 0.00 45 1012.0
20260503012543 59 0 0.0 0.9 0.00 0.00 0.00 44 1012.0
20260503012059 59 0 0.0 0.0 0.00 0.00 0.00 43 1012.0
20260503011550 60 0 0.0 0.9 0.00 0.00 0.00 42 1012.0
20260503011042 60 0 0.0 0.9 0.00 0.00 0.00 40 1012.1
20260503010544 60 0 0.0 2.6 0.00 0.00 0.00 39 1012.1
20260503010051 60 216 0.0 2.6 0.00 0.00 0.00 38 1012.1
20260503005542 60 229 0.0 2.6 0.00 0.00 0.00 38 1012.1
20260503005043 61 0 0.9 5.2 0.00 0.00 0.00 38 1012.2
20260503004547 61 248 0.9 5.2 0.00 0.00 0.00 37 1012.2
20260503004042 61 256 1.7 4.3 0.00 0.00 0.00 37 1012.1
20260503003543 61 221 1.7 4.3 0.00 0.00 0.00 36 1012.2
20260503003050 61 258 0.9 4.3 0.00 0.00 0.00 37 1012.2
20260503002542 62 215 2.6 4.3 0.00 0.00 0.00 36 1012.3
20260503002042 62 233 1.7 8.7 0.00 0.00 0.00 37 1012.2
20260503001608 62 250 2.6 8.7 0.00 0.00 0.00 36 1012.3
20260503001043 62 263 2.6 7.8 0.00 0.00 0.00 35 1012.4
20260503000543 62 286 3.5 9.6 0.00 0.00 0.00 34 1012.4
20260503000113 62 258 4.3 9.6 0.00 0.00 0.00 34 1012.3
20260502235545 62 313 5.2 9.6 0.00 0.00 0.00 36 1012.4
20260502235043 62 238 4.3 9.6 0.00 0.00 0.00 34 1012.4
20260502234554 62 265 3.5 9.6 0.00 0.00 0.00 35 1012.5
20260502234043 62 212 2.6 7.8 0.00 0.00 0.00 36 1012.5
20260502233543 62 276 3.5 7.0 0.00 0.00 0.00 34 1012.7
20260502233048 63 268 2.6 7.0 0.00 0.00 0.00 33 1012.7
20260502232542 63 195 2.6 7.8 0.00 0.00 0.00 33 1012.7
20260502232042 63 0 3.5 9.6 0.00 0.00 0.00 32 1012.7
20260502231615 64 243 3.5 10.4 0.00 0.00 0.00 32 1012.8
20260502231042 64 262 5.2 10.4 0.00 0.00 0.00 32 1012.8
20260502230542 64 243 4.3 13.0 0.00 0.00 0.00 31 1012.8
20260502230047 64 257 5.2 13.0 0.00 0.00 0.00 31 1012.8
20260502225543 64 238 6.1 13.0 0.00 0.00 0.00 31 1012.9
20260502225042 64 229 5.2 13.9 0.00 0.00 0.00 30 1013.0
20260502224556 64 202 7.0 13.9 0.00 0.00 0.00 31 1013.1
20260502224043 64 232 5.2 13.0 0.00 0.00 0.00 32 1013.2
20260502223543 64 236 3.5 13.0 0.00 0.00 0.00 32 1013.2
20260502223049 64 216 6.1 13.0 0.00 0.00 0.00 32 1013.2
20260502222542 63 211 5.2 11.3 0.00 0.00 0.00 32 1013.2
20260502222041 63 259 3.5 9.6 0.00 0.00 0.00 33 1013.3
20260502221556 63 245 3.5 8.7 0.00 0.00 0.00 32 1013.4
20260502221042 63 257 4.3 13.0 0.00 0.00 0.00 31 1013.5
20260502220543 64 229 7.0 13.0 0.00 0.00 0.00 32 1013.5
20260502220053 64 229 5.2 13.0 0.00 0.00 0.00 30 1013.5
20260502215543 64 218 7.0 13.0 0.00 0.00 0.00 30 1013.6
20260502215043 64 230 6.1 12.2 0.00 0.00 0.00 30 1013.6
20260502214555 64 241 3.5 9.6 0.00 0.00 0.00 29 1013.6
20260502214042 64 284 4.3 11.3 0.00 0.00 0.00 30 1013.6
20260502213542 64 236 5.2 11.3 0.00 0.00 0.00 30 1013.7
20260502213056 64 277 6.1 11.3 0.00 0.00 0.00 29 1013.8
20260502212546 64 238 3.5 10.4 0.00 0.00 0.00 30 1013.8
20260502212042 63 275 4.3 12.2 0.00 0.00 0.00 31 1013.9
20260502211551 63 212 6.1 12.2 0.00 0.00 0.00 31 1013.9
20260502211041 63 249 7.0 11.3 0.00 0.00 0.00 29 1014.0
20260502210540 63 196 3.5 13.9 0.00 0.00 0.00 30 1014.1
20260502210054 63 261 6.1 13.9 0.00 0.00 0.00 29 1014.1
20260502205546 63 252 7.0 13.9 0.00 0.00 0.00 33 1014.3
20260502205042 63 242 4.3 9.6 0.00 0.00 0.00 30 1014.2
20260502204554 63 302 5.2 16.5 0.00 0.00 0.00 30 1014.3
20260502204044 63 267 6.1 16.5 0.00 0.00 0.00 29 1014.4
20260502203543 63 228 7.0 13.9 0.00 0.00 0.00 29 1014.6
20260502203055 63 252 5.2 13.0 0.00 0.00 0.00 29 1014.6
20260502202540 63 232 7.0 13.0 0.00 0.00 0.00 32 1014.7
20260502202042 63 246 6.1 12.2 0.00 0.00 0.00 30 1014.7
20260502201604 63 242 5.2 12.2 0.00 0.00 0.00 30 1014.9
20260502201043 63 299 4.3 10.4 0.00 0.00 0.00 32 1014.9
20260502200543 62 263 3.5 12.2 0.00 0.00 0.00 32 1015.0
20260502200050 62 257 6.1 12.2 0.00 0.00 0.00 31 1015.1
20260502195541 63 254 6.1 10.4 0.00 0.00 0.00 31 1015.2
20260502195043 62 234 4.3 10.4 0.00 0.00 0.00 32 1015.3
20260502194604 62 264 5.2 12.2 0.00 0.00 0.00 31 1015.4
20260502194043 62 314 6.1 12.2 0.00 0.00 0.00 32 1015.5
20260502193541 62 198 5.2 14.8 0.00 0.00 0.00 33 1015.5
20260502193104 62 275 5.2 14.8 0.00 0.00 0.00 30 1015.6
20260502192542 62 224 7.0 14.8 0.00 0.00 0.00 31 1015.6
20260502192043 61 240 6.1 11.3 0.00 0.00 0.00 31 1015.7
20260502191600 61 280 5.2 13.0 0.00 0.00 0.00 33 1015.8
20260502191131 61 236 3.5 13.0 0.00 0.00 0.00 34 1015.9
20260502190542 61 219 7.0 13.0 0.00 0.00 0.00 33 1016.0
20260502190051 60 192 2.6 11.3 0.00 0.00 0.00 35 1016.0
20260502185541 60 280 2.6 11.3 0.00 0.00 0.00 34 1016.1
20260502185042 60 295 7.0 12.2 0.00 0.00 0.00 31 1016.1
20260502184559 61 270 3.5 13.9 0.00 0.00 0.00 33 1016.1
20260502184042 61 208 6.1 13.9 0.00 0.00 0.00 33 1016.2
20260502183541 60 264 6.1 9.6 0.00 0.00 0.00 33 1016.4
20260502183048 60 259 3.5 8.7 0.00 0.00 0.00 33 1016.4
20260502182543 60 261 1.7 10.4 0.00 0.00 0.00 33 1016.4
20260502182042 60 237 6.1 10.4 0.00 0.00 0.00 32 1016.5
20260502181553 60 306 3.5 9.6 0.00 0.00 0.00 38 1016.5
20260502181041 59 243 4.3 14.8 0.00 0.00 0.00 36 1016.5
20260502180541 59 360 5.2 14.8 0.00 0.00 0.00 34 1016.6
20260502164041 56 266 4.3 13.0 0.00 0.00 0.00 35 1017.4
20260502163541 56 260 6.1 14.8 0.00 0.00 0.00 35 1017.6
20260502163052 56 337 7.0 14.8 0.00 0.00 0.00 37 1017.6
20260502162546 56 334 5.2 14.8 0.00 0.00 0.00 37 1017.6
20260502162042 56 315 5.2 12.2 0.00 0.00 0.00 37 1017.8
20260502161612 55 315 5.2 13.9 0.00 0.00 0.00 37 1017.7
20260502161041 55 306 6.1 14.8 0.00 0.00 0.00 37 1017.8
20260502160542 55 329 6.1 14.8 0.00 0.00 0.00 39 1018.0
20260502160113 55 347 6.1 13.0 0.00 0.00 0.00 39 1018.0
20260502152043 51 178 1.7 4.3 0.00 0.00 0.00 51 1018.2
20260502151551 50 165 0.0 3.5 0.00 0.00 0.00 52 1018.3
20260502151042 50 213 0.0 4.3 0.00 0.00 0.00 53 1018.3
20260502150542 50 157 0.9 4.3 0.00 0.00 0.00 52 1018.4
20260502130542 39 0 0.9 3.5 0.00 0.00 0.00 84 1019.3
20260502130110 39 0 0.0 3.5 0.00 0.00 0.00 85 1019.3
20260502123541 36 0 0.0 1.7 0.00 0.00 0.00 89 1019.2
20260502123119 36 57 0.0 0.0 0.00 0.00 0.00 89 1019.2
20260502122543 35 0 0.0 0.0 0.00 0.00 0.00 90 1019.2
20260502122041 35 0 0.0 0.0 0.00 0.00 0.00 89 1019.2
20260502121550 34 0 0.0 0.0 0.00 0.00 0.00 89 1019.2
20260502121042 34 0 0.0 0.0 0.00 0.00 0.00 89 1019.1
20260502120541 33 0 0.0 1.7 0.00 0.00 0.00 89 1019.1
20260502115542 33 0 0.0 1.7 0.00 0.00 0.00 88 1019.0
20260502115042 32 0 0.0 0.0 0.00 0.00 0.00 88 1019.0
20260502114548 32 0 0.0 0.0 0.00 0.00 0.00 88 1019.0
20260502114042 32 0 0.0 0.0 0.00 0.00 0.00 88 1019.1
20260502113542 32 0 0.0 0.0 0.00 0.00 0.00 87 1018.9
20260502113047 32 0 0.0 0.0 0.00 0.00 0.00 87 1018.9
20260502112541 32 0 0.0 1.7 0.00 0.00 0.00 87 1018.9
20260502112041 32 0 0.0 1.7 0.00 0.00 0.00 87 1018.8
20260502111553 32 0 0.0 1.7 0.00 0.00 0.00 87 1018.8
20260502111046 32 0 0.0 0.0 0.00 0.00 0.00 86 1018.8
20260502110541 32 0 0.0 0.0 0.00 0.00 0.00 86 1018.8
20260502110050 32 0 0.0 0.0 0.00 0.00 0.00 86 1018.8
20260502105540 32 0 0.0 0.0 0.00 0.00 0.00 86 1018.8
20260502105042 32 0 0.0 0.0 0.00 0.00 0.00 85 1018.8
20260502104549 32 0 0.0 0.9 0.00 0.00 0.00 85 1018.9
20260502104044 32 0 0.0 0.9 0.00 0.00 0.00 85 1018.9
20260502103542 33 0 0.0 0.0 0.00 0.00 0.00 85 1018.8
20260502103049 33 0 0.0 0.0 0.00 0.00 0.00 85 1018.9
20260502102542 33 0 0.0 0.0 0.00 0.00 0.00 85 1018.9
20260502102041 33 0 0.0 0.9 0.00 0.00 0.00 84 1018.9
20260502101555 33 0 0.0 0.9 0.00 0.00 0.00 84 1018.8
20260502101045 33 0 0.0 0.9 0.00 0.00 0.00 84 1018.9
20260502100541 33 0 0.0 0.0 0.00 0.00 0.00 84 1018.9
20260502091040 33 0 0.0 0.0 0.00 0.00 0.00 81 1018.9
20260502090541 33 0 0.0 0.0 0.00 0.00 0.00 81 1018.9
20260502071042 33 0 0.0 1.7 0.00 0.00 0.00 79 1019.0
20260502070543 33 0 0.0 0.9 0.00 0.00 0.00 78 1019.0
20260502070048 33 0 0.0 0.0 0.00 0.00 0.00 78 1018.9
20260502065542 33 0 0.0 0.0 0.00 0.00 0.00 78 1019.0
20260502065042 34 0 0.0 0.0 0.00 0.00 0.00 78 1019.0
20260502064547 34 0 0.0 0.0 0.00 0.00 0.00 77 1019.0
20260502064042 34 0 0.0 0.0 0.00 0.00 0.00 77 1019.0
20260502063543 34 0 0.0 0.0 0.00 0.00 0.00 77 1019.0
20260502063059 34 0 0.0 0.0 0.00 0.00 0.00 77 1019.0
20260502062542 34 0 0.0 0.0 0.00 0.00 0.00 77 1019.0
20260502062045 34 0 0.0 0.0 0.00 0.00 0.00 76 1019.0
20260502061548 34 0 0.0 0.0 0.00 0.00 0.00 76 1019.0
20260502061042 34 0 0.0 0.0 0.00 0.00 0.00 76 1019.1
20260502060544 34 0 0.0 0.0 0.00 0.00 0.00 76 1019.1
20260502060111 34 0 0.0 0.0 0.00 0.00 0.00 75 1019.1
20260502055543 35 0 0.0 0.0 0.00 0.00 0.00 75 1019.0
20260502055045 35 0 0.0 0.9 0.00 0.00 0.00 74 1019.0
20260502054555 35 0 0.0 0.9 0.00 0.00 0.00 75 1019.1
20260502054043 35 0 0.0 0.9 0.00 0.00 0.00 74 1019.0
20260502053542 35 0 0.0 0.0 0.00 0.00 0.00 74 1019.0
20260502053050 35 0 0.0 0.0 0.00 0.00 0.00 73 1019.0
20260502052543 35 0 0.0 0.0 0.00 0.00 0.00 73 1018.9
20260502052045 36 0 0.0 0.0 0.00 0.00 0.00 73 1018.9
20260502051553 36 0 0.0 0.0 0.00 0.00 0.00 73 1019.0
20260502051043 36 0 0.0 0.0 0.00 0.00 0.00 72 1018.9
20260502050544 36 0 0.0 0.0 0.00 0.00 0.00 72 1018.9